WWW224 KLAS-KXTA

Flight info

Callsign WWW224
Flight time 0h 22m
Altitude 21000
Route LOHLA3 JAYSN SMKEE
Aircraft B736/M-SDE2E3FGHIRWXY/LB1

Departure

Time 2026-05-08 00:54
Airport Harry Reid International Airport (KLAS)

Arrival

Time 2026-05-08 01:17
Airport Homey (Area 51) Airport (KXTA)
Time Latitude Longitude Altitude Speed Heading
2026-05-08 00:31 36.09172 -115.16538 2146 ft 0 kts 76°
2026-05-08 00:47 36.09173 -115.16536 2146 ft 2 kts 76°
2026-05-08 00:47 36.09170 -115.16500 2144 ft 7 kts 121°
2026-05-08 00:47 36.09128 -115.16440 2140 ft 12 kts 99°
2026-05-08 00:48 36.09159 -115.16344 2133 ft 15 kts 21°
2026-05-08 00:48 36.09250 -115.16295 2130 ft 14 kts 24°
2026-05-08 00:48 36.09337 -115.16245 2127 ft 14 kts 26°
2026-05-08 00:48 36.09423 -115.16195 2124 ft 14 kts 25°
2026-05-08 00:49 36.09512 -115.16144 2121 ft 15 kts 25°
2026-05-08 00:49 36.09608 -115.16089 2119 ft 15 kts 25°
2026-05-08 00:49 36.09708 -115.16032 2116 ft 16 kts 25°
2026-05-08 00:49 36.09805 -115.15977 2113 ft 16 kts 25°
2026-05-08 00:50 36.09904 -115.15920 2109 ft 15 kts 25°
2026-05-08 00:50 36.09920 -115.15838 2107 ft 12 kts 116°
2026-05-08 00:50 36.09881 -115.15736 2101 ft 14 kts 117°
2026-05-08 00:50 36.09813 -115.15732 2101 ft 2 kts 205°
2026-05-08 00:53 36.09810 -115.15734 2102 ft 3 kts 205°
2026-05-08 00:53 36.09533 -115.15893 2105 ft 88 kts 205°
2026-05-08 00:54 36.08741 -115.16350 2136 ft 160 kts 205°
2026-05-08 00:54 36.07651 -115.16972 2758 ft 173 kts 205°
2026-05-08 00:54 36.06618 -115.17657 3822 ft 168 kts 222°
2026-05-08 00:54 36.06096 -115.18928 4511 ft 178 kts 269°
2026-05-08 00:55 36.06286 -115.20574 4892 ft 211 kts 281°
2026-05-08 00:55 36.06618 -115.22482 5147 ft 243 kts 282°
2026-05-08 00:55 36.07005 -115.24654 5484 ft 271 kts 283°
2026-05-08 00:55 36.07736 -115.26833 6295 ft 280 kts 307°
2026-05-08 00:56 36.09201 -115.28404 7286 ft 282 kts 331°
2026-05-08 00:56 36.11058 -115.29215 8251 ft 286 kts 346°
2026-05-08 00:56 36.13024 -115.29744 9150 ft 291 kts 347°
2026-05-08 00:56 36.15019 -115.30265 10052 ft 295 kts 347°
2026-05-08 00:57 36.16948 -115.31074 11082 ft 293 kts 327°
2026-05-08 00:57 36.18392 -115.32817 12222 ft 291 kts 305°
2026-05-08 00:57 36.19353 -115.35049 13069 ft 303 kts 295°
2026-05-08 00:57 36.20198 -115.37560 13480 ft 327 kts 292°
2026-05-08 00:58 36.21044 -115.40220 14273 ft 336 kts 293°
2026-05-08 00:58 36.21910 -115.42917 15260 ft 339 kts 293°
2026-05-08 00:58 36.22800 -115.45639 16212 ft 343 kts 294°
2026-05-08 00:58 36.23718 -115.48396 17119 ft 349 kts 295°
2026-05-08 00:59 36.24655 -115.51190 18043 ft 353 kts 295°
2026-05-08 00:59 36.25604 -115.54005 19050 ft 353 kts 296°
2026-05-08 00:59 36.26821 -115.56614 20138 ft 348 kts 308°
2026-05-08 00:59 36.28287 -115.59012 20701 ft 348 kts 310°
2026-05-08 01:00 36.29784 -115.61357 20942 ft 349 kts 311°
2026-05-08 01:00 36.31301 -115.63725 20937 ft 350 kts 311°
2026-05-08 01:00 36.32779 -115.66056 20955 ft 349 kts 310°
2026-05-08 01:00 36.34270 -115.68430 20948 ft 348 kts 310°
2026-05-08 01:01 36.35750 -115.70806 20954 ft 348 kts 310°
2026-05-08 01:01 36.37224 -115.73186 20969 ft 348 kts 310°
2026-05-08 01:01 36.38698 -115.75571 20959 ft 348 kts 310°
2026-05-08 01:01 36.40171 -115.77960 20958 ft 349 kts 310°
2026-05-08 01:02 36.41643 -115.80352 20960 ft 349 kts 310°
2026-05-08 01:02 36.43113 -115.82745 20971 ft 348 kts 310°
2026-05-08 01:02 36.44583 -115.85139 20969 ft 349 kts 310°
2026-05-08 01:02 36.46056 -115.87538 20968 ft 349 kts 310°
2026-05-08 01:03 36.47527 -115.89936 20972 ft 349 kts 310°
2026-05-08 01:03 36.48996 -115.92332 20981 ft 348 kts 310°
2026-05-08 01:03 36.50464 -115.94727 20970 ft 348 kts 310°
2026-05-08 01:03 36.51935 -115.97113 20956 ft 347 kts 312°
2026-05-08 01:04 36.53743 -115.99052 20653 ft 342 kts 333°
2026-05-08 01:04 36.55918 -116.00174 20350 ft 336 kts 346°
2026-05-08 01:04 36.58200 -116.00455 19913 ft 332 kts
2026-05-08 01:04 36.60368 -115.99527 19389 ft 334 kts 30°
2026-05-08 01:05 36.62157 -115.97696 18875 ft 331 kts 41°
2026-05-08 01:05 36.63778 -115.95685 18103 ft 328 kts 43°
2026-05-08 01:05 36.65367 -115.93640 17234 ft 329 kts 43°
2026-05-08 01:05 36.66949 -115.91592 16635 ft 325 kts 43°
2026-05-08 01:06 36.68526 -115.89564 16107 ft 326 kts 43°
2026-05-08 01:06 36.70109 -115.87544 15638 ft 325 kts 43°
2026-05-08 01:06 36.71688 -115.85539 15165 ft 323 kts 43°
2026-05-08 01:06 36.73260 -115.83549 14807 ft 319 kts 43°
2026-05-08 01:07 36.74783 -115.81622 14681 ft 306 kts 43°
2026-05-08 01:07 36.76237 -115.79782 14536 ft 297 kts 43°
2026-05-08 01:07 36.77700 -115.77932 14156 ft 296 kts 43°
2026-05-08 01:07 36.79126 -115.76132 13786 ft 295 kts 43°
2026-05-08 01:08 36.80582 -115.74292 13421 ft 293 kts 43°
2026-05-08 01:08 36.81995 -115.72505 13064 ft 293 kts 43°
2026-05-08 01:08 36.83424 -115.70695 12691 ft 293 kts 43°
2026-05-08 01:08 36.84851 -115.68887 12300 ft 293 kts 43°
2026-05-08 01:09 36.86279 -115.67078 11933 ft 292 kts 43°
2026-05-08 01:09 36.87701 -115.65274 11564 ft 291 kts 43°
2026-05-08 01:09 36.89238 -115.63681 11173 ft 286 kts 24°
2026-05-08 01:09 36.91143 -115.63072 10820 ft 287 kts
2026-05-08 01:10 36.93123 -115.63473 10254 ft 290 kts 341°
2026-05-08 01:10 36.95016 -115.64385 9712 ft 293 kts 336°
2026-05-08 01:10 36.96897 -115.65382 9162 ft 295 kts 336°
2026-05-08 01:10 36.98804 -115.66374 8605 ft 298 kts 337°
2026-05-08 01:11 37.00717 -115.67347 8050 ft 293 kts 337°
2026-05-08 01:11 37.02547 -115.68298 7806 ft 277 kts 337°
2026-05-08 01:11 37.04273 -115.69209 7561 ft 262 kts 337°
2026-05-08 01:11 37.05893 -115.70055 7377 ft 243 kts 338°
2026-05-08 01:12 37.07395 -115.70812 7145 ft 221 kts 337°
2026-05-08 01:12 37.08736 -115.71507 6944 ft 196 kts 336°
2026-05-08 01:12 37.09923 -115.72133 6762 ft 175 kts 336°
2026-05-08 01:12 37.11004 -115.72708 6659 ft 163 kts 336°
2026-05-08 01:13 37.12018 -115.73245 6587 ft 150 kts 336°
2026-05-08 01:13 37.12938 -115.73733 6360 ft 135 kts 337°
2026-05-08 01:13 37.13773 -115.74170 6200 ft 127 kts 336°
2026-05-08 01:13 37.14618 -115.74624 6047 ft 138 kts 335°
2026-05-08 01:14 37.15517 -115.75101 5860 ft 141 kts 335°
2026-05-08 01:14 37.16416 -115.75577 5661 ft 138 kts 335°
2026-05-08 01:14 37.16995 -115.75884 5534 ft 136 kts 336°
2026-05-08 01:14 37.17871 -115.76350 5370 ft 139 kts 333°
2026-05-08 01:15 37.18763 -115.76820 5190 ft 138 kts 334°
2026-05-08 01:15 37.19639 -115.77288 4998 ft 137 kts 334°
2026-05-08 01:15 37.20541 -115.77749 4833 ft 141 kts 337°
2026-05-08 01:15 37.21431 -115.78242 4586 ft 138 kts 334°
2026-05-08 01:16 37.22312 -115.78695 4454 ft 132 kts 335°
2026-05-08 01:16 37.23034 -115.79093 4452 ft 94 kts 340°
2026-05-08 01:16 37.23248 -115.79198 4452 ft 88 kts 336°
2026-05-08 01:16 37.23249 -115.79199 4452 ft 88 kts 336°
2026-05-08 01:17 37.23718 -115.79440 4452 ft 64 kts 337°
2026-05-08 01:17 37.23875 -115.79570 4452 ft 15 kts 268°
2026-05-08 01:17 37.23846 -115.79693 4452 ft 14 kts 252°
2026-05-08 01:17 37.23816 -115.79810 4452 ft 14 kts 252°
2026-05-08 01:18 37.23787 -115.79922 4452 ft 13 kts 252°
2026-05-08 01:18 37.23759 -115.80033 4452 ft 14 kts 252°
2026-05-08 01:18 37.23725 -115.80165 4452 ft 16 kts 252°
2026-05-08 01:18 37.23693 -115.80297 4452 ft 16 kts 253°
2026-05-08 01:19 37.23657 -115.80423 4452 ft 15 kts 249°
2026-05-08 01:19 37.23625 -115.80545 4452 ft 14 kts 254°
2026-05-08 01:19 37.23598 -115.80662 4452 ft 14 kts 253°
2026-05-08 01:19 37.23572 -115.80774 4452 ft 13 kts 252°
2026-05-08 01:20 37.23543 -115.80882 4452 ft 14 kts 252°
2026-05-08 01:20 37.23510 -115.81008 4452 ft 16 kts 253°
2026-05-08 01:20 37.23507 -115.81118 4452 ft 9 kts 333°
2026-05-08 01:20 37.23571 -115.81122 4452 ft 9 kts 358°
2026-05-08 01:21 37.23633 -115.81126 4452 ft 9 kts 357°
2026-05-08 01:21 37.23696 -115.81130 4452 ft 10 kts 356°
2026-05-08 01:21 37.23770 -115.81136 4452 ft 11 kts 356°
2026-05-08 01:21 37.23844 -115.81142 4452 ft 11 kts 356°
2026-05-08 01:22 37.23890 -115.81146 4452 ft 6 kts 357°
2026-05-08 01:22 37.23907 -115.81183 4452 ft 6 kts 266°
2026-05-08 01:22 37.23901 -115.81235 4452 ft 6 kts 243°
2026-05-08 01:22 37.23869 -115.81228 4452 ft 7 kts 106°
2026-05-08 01:23 37.23869 -115.81193 4452 ft 0 kts 87°
2026-05-08 01:23 37.23869 -115.81191 4452 ft 0 kts 87°